HST
1 20580U 90037B   24140.18408458  .00008630  00000-0  41091-3 0  9998
2 20580  28.4674 179.3968 0002790  85.5823 274.5088 15.17370184672882
ISS (ZARYA)
1 25544U 98067A   24140.20295706  .00030653  00000-0  51361-3 0  9998
2 25544  51.6379  99.0325 0003255 185.3717 191.2672 15.51568711454054
CXO
1 25867U 99040B   24141.41825767  .00000654  00000-0  00000-0 0  9997
2 25867  40.5518 156.4184 8917274 294.5910 359.8498  0.37815615 14456